Weather History for Fryeburg, ME

Change the Weather History Date:

Wednesday, January 23, 2013

  Actual Average Record
Temperature  
Mean Temperature 0 °F -  
Max Temperature 3 °F 26 °F 48 °F (2002)
Min Temperature -4 °F 2 °F -17 °F (2000)
Degree Days  
Heating Degree Days 66    
Moisture  
Dew Point -20 °F    
Average Humidity 39    
Maximum Humidity 47    
Minimum Humidity 32    
Precipitation  
Precipitation 0.00 in - - ()
Sea Level Pressure  
Sea Level Pressure 30.06 in    
Wind  
Wind Speed 9 mph (WNW)    
Max Wind Speed 16 mph    
Max Gust Speed 30 mph    
Visibility 10 miles    
Events      
Averages and records for this station are not official NWS values.
T = Trace of Precipitation, MM = Missing Value Source: NWS Daily Summary

Daily Weather History Graph

Daily Weather History Graph

Search for Another Location

Airport:

Trip Planner

Search our weather history database for the weather conditions in past years. The results will help you decide how hot, cold, wet, or windy it might be!

Date:

Astronomy

Jan. 23, 2013 Rise Set
Actual Time 7:09 AM EST 4:42 PM EST
Civil Twilight 6:38 AM EST 5:13 PM EST
Nautical Twilight 6:03 AM EST 5:48 PM EST
Astronomical Twilight 5:28 AM EST 6:22 PM EST
Moon 1:48 PM EST (1/23) 4:20 AM EST (1/23)
Length of Visible Light 10h 35m
Length of Day
9h 32m
Waxing Gibbous, 89% of the Moon is Illuminated
Jan 23
Waxing Gibbous
Jan 26
Full
Feb 3
Last Quarter
Feb 10
New
Feb 17
First Quarter

Hourly Weather History & Observations

Time (EST) Temp. Windchill Dew Point Humidity Pressure Visibility Wind Dir Wind Speed Gust Speed Precip Events Conditions
12:54 AM 1.0 °F -10.3 °F -15.0 °F 47% 30.02 in 10.0 mi WNW 5.8 mph - N/A   Clear
1:54 AM 1.0 °F -14.0 °F -15.0 °F 47% 30.03 in 10.0 mi NW 9.2 mph - N/A   Clear
2:54 AM -0.0 °F -16.3 °F -16.1 °F 47% 30.04 in 10.0 mi WNW 10.4 mph 18.4 mph N/A   Clear
3:54 AM -0.9 °F -18.3 °F -17.0 °F 47% 30.04 in 10.0 mi WNW 11.5 mph 21.9 mph N/A   Clear
4:54 AM -2.0 °F -18.7 °F -18.0 °F 47% 30.06 in 10.0 mi NW 10.4 mph 19.6 mph N/A   Clear
5:54 AM -2.9 °F -22.4 °F -20.0 °F 44% 30.07 in 10.0 mi WNW 13.8 mph 20.7 mph N/A   Clear
6:54 AM -2.9 °F -23.1 °F -20.9 °F 42% 30.09 in 10.0 mi WNW 15.0 mph 27.6 mph N/A   Clear
7:54 AM -4.0 °F -25.2 °F -20.9 °F 44% 30.09 in 10.0 mi WNW 16.1 mph 24.2 mph N/A   Clear
8:54 AM -2.9 °F -23.8 °F -22.0 °F 40% 30.09 in 10.0 mi WNW 16.1 mph 29.9 mph N/A   Clear
9:54 AM -2.0 °F -21.2 °F -23.1 °F 36% 30.10 in 10.0 mi West 13.8 mph 25.3 mph N/A   Clear
10:54 AM -0.0 °F -16.3 °F -23.1 °F 33% 30.10 in 10.0 mi WNW 10.4 mph 18.4 mph N/A   Clear
11:54 AM 1.0 °F -12.9 °F -22.0 °F 33% 30.07 in 10.0 mi West 8.1 mph 18.4 mph N/A   Clear
12:54 PM 3.0 °F -10.5 °F -20.9 °F 32% 30.05 in 10.0 mi West 8.1 mph 19.6 mph 0.00 in   Clear
1:54 PM 3.0 °F -8.0 °F -20.9 °F 32% 30.05 in 10.0 mi Variable 5.8 mph - N/A   Clear
2:54 PM 3.0 °F -8.0 °F -20.9 °F 32% 30.06 in 10.0 mi West 5.8 mph - 0.00 in   Clear
4:54 PM -0.0 °F -17.1 °F -22.0 °F 35% 30.06 in 10.0 mi West 11.5 mph - N/A   Clear
5:54 PM -0.0 °F -15.3 °F -22.0 °F 35% 30.07 in 10.0 mi West 9.2 mph 19.6 mph N/A   Clear
6:54 PM -0.0 °F -7.9 °F -22.0 °F 35% 30.08 in 10.0 mi West 3.5 mph 16.1 mph N/A   Clear
7:54 PM -2.0 °F -13.9 °F -20.9 °F 40% 30.07 in 10.0 mi WSW 5.8 mph - N/A   Clear
8:54 PM -0.0 °F -13.0 °F -20.9 °F 37% 30.06 in 10.0 mi West 6.9 mph - N/A   Clear
9:54 PM -0.9 °F -12.7 °F -20.9 °F 38% 30.06 in 10.0 mi West 5.8 mph - N/A   Clear
10:54 PM -2.9 °F -13.3 °F -20.0 °F 44% 30.06 in 10.0 mi Variable 4.6 mph - N/A   Clear
11:54 PM -2.0 °F -12.2 °F -20.9 °F 40% 30.05 in 10.0 mi West 4.6 mph - N/A   Clear